| time (UTC) | temp C | wind direction | speed KPH | gust KPH | rain 1hr cm | rain 24hr cm | rain mn cm | humidity % | barometer mb |
| 20260905224527 | 37 | 64 | 1.6 | 16.1 | 0.00 | 0.00 | 0.00 | 40 | 1010.0 |
| 20260905224104 | 37 | 107 | 4.8 | 16.1 | 0.00 | 0.00 | 0.00 | 39 | 1009.9 |
| 20260905223536 | 37 | 111 | 3.2 | 14.5 | 0.00 | 0.00 | 0.00 | 39 | 1009.9 |
| 20260905223009 | 37 | 136 | 4.8 | 14.5 | 0.00 | 0.00 | 0.00 | 39 | 1010.0 |
| 20260905222551 | 37 | 154 | 3.2 | 11.3 | 0.00 | 0.00 | 0.00 | 38 | 1010.0 |
| 20260905222026 | 37 | 207 | 0.0 | 11.3 | 0.00 | 0.00 | 0.00 | 39 | 1010.0 |
| 20260905221605 | 37 | 123 | 1.6 | 14.5 | 0.00 | 0.00 | 0.00 | 39 | 1010.0 |
| 20260905221041 | 37 | 148 | 4.8 | 14.5 | 0.00 | 0.00 | 0.00 | 38 | 1010.1 |
| 20260905220517 | 36 | 112 | 3.2 | 12.9 | 0.00 | 0.00 | 0.00 | 38 | 1010.1 |
| 20260905220055 | 37 | 138 | 4.8 | 14.5 | 0.00 | 0.00 | 0.00 | 39 | 1010.1 |
| 20260905215531 | 37 | 159 | 3.2 | 14.5 | 0.00 | 0.00 | 0.00 | 38 | 1010.1 |
| 20260905215007 | 37 | 121 | 1.6 | 12.9 | 0.00 | 0.00 | 0.00 | 40 | 1010.1 |
| 20260905214544 | 37 | 134 | 1.6 | 6.4 | 0.00 | 0.00 | 0.00 | 38 | 1010.2 |
| 20260905214027 | 37 | 136 | 0.0 | 11.3 | 0.00 | 0.00 | 0.00 | 39 | 1010.2 |
| 20260905213602 | 37 | 136 | 4.8 | 11.3 | 0.00 | 0.00 | 0.00 | 38 | 1010.3 |
| 20260905213035 | 37 | 153 | 0.0 | 12.9 | 0.00 | 0.00 | 0.00 | 39 | 1010.3 |
| 20260905212512 | 37 | 117 | 3.2 | 9.7 | 0.00 | 0.00 | 0.00 | 39 | 1010.3 |
| 20260905212052 | 37 | 117 | 1.6 | 9.7 | 0.00 | 0.00 | 0.00 | 39 | 1010.5 |
| 20260905211525 | 37 | 104 | 1.6 | 12.9 | 0.00 | 0.00 | 0.00 | 38 | 1010.5 |
| 20260905211002 | 37 | 79 | 1.6 | 9.7 | 0.00 | 0.00 | 0.00 | 40 | 1010.7 |
| 20260905210544 | 37 | 87 | 1.6 | 9.7 | 0.00 | 0.00 | 0.00 | 42 | 1010.7 |
| 20260905210016 | 37 | 122 | 0.0 | 8.0 | 0.00 | 0.00 | 0.00 | 40 | 1010.7 |
| 20260905205557 | 36 | 122 | 1.6 | 12.9 | 0.00 | 0.00 | 0.00 | 40 | 1010.8 |
| 20260905205034 | 36 | 127 | 1.6 | 14.5 | 0.00 | 0.00 | 0.00 | 40 | 1010.9 |
| 20260905204509 | 36 | 141 | 6.4 | 14.5 | 0.00 | 0.00 | 0.00 | 41 | 1011.0 |
| 20260905204047 | 36 | 261 | 3.2 | 16.1 | 0.00 | 0.00 | 0.00 | 40 | 1011.1 |
| 20260905203524 | 36 | 74 | 1.6 | 8.0 | 0.00 | 0.00 | 0.00 | 42 | 1011.1 |
| 20260905203106 | 36 | 70 | 3.2 | 12.9 | 0.00 | 0.00 | 0.00 | 45 | 1011.1 |
| 20260905202538 | 36 | 153 | 1.6 | 12.9 | 0.00 | 0.00 | 0.00 | 41 | 1011.2 |
| 20260905202015 | 36 | 75 | 4.8 | 12.9 | 0.00 | 0.00 | 0.00 | 43 | 1011.2 |
| 20260905201553 | 36 | 67 | 0.0 | 8.0 | 0.00 | 0.00 | 0.00 | 44 | 1011.2 |
| 20260905201028 | 36 | 144 | 1.6 | 12.9 | 0.00 | 0.00 | 0.00 | 42 | 1011.3 |
| 20260905200506 | 36 | 194 | 0.0 | 12.9 | 0.00 | 0.00 | 0.00 | 43 | 1011.5 |
| 20260905200048 | 36 | 74 | 3.2 | 14.5 | 0.00 | 0.00 | 0.00 | 42 | 1011.6 |
| 20260905195520 | 36 | 125 | 4.8 | 19.3 | 0.00 | 0.00 | 0.00 | 43 | 1011.7 |
| 20260905195101 | 36 | 176 | 3.2 | 19.3 | 0.00 | 0.00 | 0.00 | 41 | 1011.8 |
| 20260905194540 | 36 | 132 | 6.4 | 14.5 | 0.00 | 0.00 | 0.00 | 40 | 1011.8 |
| 20260905194014 | 36 | 261 | 3.2 | 11.3 | 0.00 | 0.00 | 0.00 | 41 | 1011.9 |
| 20260905193553 | 36 | 187 | 1.6 | 8.0 | 0.00 | 0.00 | 0.00 | 43 | 1012.0 |
| 20260905193030 | 35 | 196 | 1.6 | 16.1 | 0.00 | 0.00 | 0.00 | 44 | 1012.1 |
| 20260905192506 | 36 | 96 | 8.0 | 16.1 | 0.00 | 0.00 | 0.00 | 44 | 1012.2 |
| 20260905192047 | 35 | 170 | 1.6 | 12.9 | 0.00 | 0.00 | 0.00 | 46 | 1012.2 |
| 20260905191526 | 35 | 167 | 3.2 | 12.9 | 0.00 | 0.00 | 0.00 | 46 | 1012.3 |
| 20260905191106 | 35 | 265 | 3.2 | 6.4 | 0.00 | 0.00 | 0.00 | 46 | 1012.4 |
| 20260905190539 | 35 | 209 | 0.0 | 14.5 | 0.00 | 0.00 | 0.00 | 47 | 1012.5 |
| 20260905190014 | 35 | 133 | 6.4 | 14.5 | 0.00 | 0.00 | 0.00 | 45 | 1012.7 |
| 20260905185558 | 35 | 178 | 8.0 | 16.1 | 0.00 | 0.00 | 0.00 | 45 | 1012.7 |
| 20260905185030 | 35 | 252 | 1.6 | 14.5 | 0.00 | 0.00 | 0.00 | 48 | 1012.9 |
| 20260905184516 | 35 | 130 | 4.8 | 17.7 | 0.00 | 0.00 | 0.00 | 48 | 1013.0 |
| 20260905184046 | 35 | 136 | 6.4 | 17.7 | 0.00 | 0.00 | 0.00 | 49 | 1013.1 |
| 20260905183525 | 34 | 88 | 4.8 | 12.9 | 0.00 | 0.00 | 0.00 | 49 | 1013.1 |
| 20260905183118 | 34 | 32 | 4.8 | 9.7 | 0.00 | 0.00 | 0.00 | 50 | 1013.1 |
| 20260905182539 | 34 | 211 | 1.6 | 6.4 | 0.00 | 0.00 | 0.00 | 47 | 1013.1 |
| 20260905182015 | 34 | 143 | 1.6 | 12.9 | 0.00 | 0.00 | 0.00 | 48 | 1013.3 |
| 20260905181554 | 34 | 188 | 3.2 | 12.9 | 0.00 | 0.00 | 0.00 | 50 | 1013.3 |
| 20260905181031 | 33 | 140 | 3.2 | 8.0 | 0.00 | 0.00 | 0.00 | 51 | 1013.5 |
| 20260905180508 | 33 | 119 | 3.2 | 17.7 | 0.00 | 0.00 | 0.00 | 53 | 1013.5 |
| 20260905180047 | 33 | 155 | 8.0 | 17.7 | 0.00 | 0.00 | 0.00 | 50 | 1013.7 |
| 20260905175523 | 33 | 157 | 6.4 | 17.7 | 0.00 | 0.00 | 0.00 | 48 | 1013.8 |
| 20260905175001 | 33 | 132 | 3.2 | 16.1 | 0.00 | 0.00 | 0.00 | 51 | 1013.8 |
| 20260905174541 | 33 | 167 | 6.4 | 16.1 | 0.00 | 0.00 | 0.00 | 50 | 1014.0 |
| 20260905174016 | 33 | 146 | 3.2 | 16.1 | 0.00 | 0.00 | 0.00 | 50 | 1014.0 |
| 20260905173557 | 33 | 131 | 8.0 | 14.5 | 0.00 | 0.00 | 0.00 | 51 | 1014.0 |
| 20260905173031 | 33 | 217 | 1.6 | 11.3 | 0.00 | 0.00 | 0.00 | 54 | 1014.0 |
| 20260905172508 | 33 | 162 | 1.6 | 16.1 | 0.00 | 0.00 | 0.00 | 56 | 1014.1 |
| 20260905172050 | 32 | 186 | 6.4 | 16.1 | 0.00 | 0.00 | 0.00 | 56 | 1014.2 |
| 20260905171527 | 32 | 228 | 0.0 | 12.9 | 0.00 | 0.00 | 0.00 | 55 | 1014.2 |
| 20260905171106 | 32 | 171 | 3.2 | 12.9 | 0.00 | 0.00 | 0.00 | 56 | 1014.3 |
| 20260905170542 | 32 | 136 | 4.8 | 11.3 | 0.00 | 0.00 | 0.00 | 58 | 1014.3 |
| 20260905170017 | 32 | 145 | 6.4 | 16.1 | 0.00 | 0.00 | 0.00 | 58 | 1014.4 |
| 20260905165602 | 32 | 161 | 8.0 | 16.1 | 0.00 | 0.00 | 0.00 | 57 | 1014.5 |
| 20260905165037 | 32 | 189 | 0.0 | 14.5 | 0.00 | 0.00 | 0.00 | 58 | 1014.4 |
| 20260905164511 | 31 | 173 | 4.8 | 14.5 | 0.00 | 0.00 | 0.00 | 61 | 1014.5 |
| 20260905164054 | 31 | 172 | 1.6 | 12.9 | 0.00 | 0.00 | 0.00 | 58 | 1014.5 |
| 20260905163532 | 31 | 225 | 4.8 | 12.9 | 0.00 | 0.00 | 0.00 | 59 | 1014.5 |
| 20260905163009 | 31 | 163 | 3.2 | 14.5 | 0.00 | 0.00 | 0.00 | 59 | 1014.6 |
| 20260905162554 | 31 | 248 | 3.2 | 14.5 | 0.00 | 0.00 | 0.00 | 60 | 1014.5 |
| 20260905162031 | 31 | 153 | 6.4 | 16.1 | 0.00 | 0.00 | 0.00 | 61 | 1014.5 |
| 20260905161518 | 31 | 200 | 6.4 | 16.1 | 0.00 | 0.00 | 0.00 | 62 | 1014.6 |
| 20260905161059 | 31 | 123 | 3.2 | 14.5 | 0.00 | 0.00 | 0.00 | 63 | 1014.5 |
| 20260905160535 | 31 | 148 | 6.4 | 14.5 | 0.00 | 0.00 | 0.00 | 64 | 1014.4 |
| 20260905160017 | 30 | 148 | 3.2 | 14.5 | 0.00 | 0.00 | 0.00 | 64 | 1014.5 |
| 20260905155553 | 30 | 132 | 4.8 | 19.3 | 0.00 | 0.00 | 0.00 | 65 | 1014.4 |
| 20260905155029 | 30 | 168 | 4.8 | 19.3 | 0.00 | 0.00 | 0.00 | 65 | 1014.4 |
| 20260905154502 | 30 | 137 | 3.2 | 12.9 | 0.00 | 0.00 | 0.00 | 67 | 1014.4 |
| 20260905154044 | 30 | 200 | 1.6 | 12.9 | 0.00 | 0.00 | 0.00 | 67 | 1014.4 |
| 20260905153521 | 30 | 225 | 3.2 | 17.7 | 0.00 | 0.00 | 0.00 | 68 | 1014.4 |
| 20260905153110 | 30 | 150 | 6.4 | 17.7 | 0.00 | 0.00 | 0.00 | 69 | 1014.5 |
| 20260905152536 | 30 | 139 | 8.0 | 14.5 | 0.00 | 0.00 | 0.00 | 70 | 1014.4 |
| 20260905152012 | 29 | 149 | 3.2 | 12.9 | 0.00 | 0.00 | 0.00 | 72 | 1014.4 |
| 20260905151552 | 29 | 152 | 3.2 | 12.9 | 0.00 | 0.00 | 0.00 | 73 | 1014.4 |
| 20260905151028 | 29 | 234 | 1.6 | 12.9 | 0.00 | 0.00 | 0.00 | 74 | 1014.3 |
| 20260905150505 | 28 | 207 | 3.2 | 14.5 | 0.00 | 0.00 | 0.00 | 74 | 1014.4 |
| 20260905150045 | 28 | 160 | 6.4 | 14.5 | 0.00 | 0.00 | 0.00 | 75 | 1014.5 |
| 20260905145524 | 28 | 144 | 4.8 | 12.9 | 0.00 | 0.00 | 0.00 | 76 | 1014.5 |
| 20260905145103 | 28 | 140 | 4.8 | 14.5 | 0.00 | 0.00 | 0.00 | 79 | 1014.5 |
| 20260905144538 | 28 | 140 | 3.2 | 14.5 | 0.00 | 0.00 | 0.00 | 80 | 1014.5 |
| 20260905144013 | 27 | 130 | 3.2 | 14.5 | 0.00 | 0.00 | 0.00 | 83 | 1014.6 |
| 20260905143555 | 27 | 254 | 1.6 | 6.4 | 0.00 | 0.00 | 0.00 | 84 | 1014.6 |
| 20260905143031 | 27 | 136 | 1.6 | 11.3 | 0.00 | 0.00 | 0.00 | 84 | 1014.6 |
| 20260905142507 | 27 | 246 | 1.6 | 4.8 | 0.00 | 0.00 | 0.00 | 86 | 1014.6 |
| 20260905142049 | 27 | 180 | 0.0 | 4.8 | 0.00 | 0.00 | 0.00 | 87 | 1014.6 |
| 20260905141526 | 26 | 180 | 0.0 | 6.4 | 0.00 | 0.00 | 0.00 | 89 | 1014.6 |
| 20260905141006 | 26 | 185 | 1.6 | 6.4 | 0.00 | 0.00 | 0.00 | 89 | 1014.5 |
| 20260905140546 | 26 | 185 | 0.0 | 11.3 | 0.00 | 0.00 | 0.00 | 90 | 1014.5 |
| 20260905140024 | 26 | 140 | 4.8 | 12.9 | 0.00 | 0.00 | 0.00 | 90 | 1014.5 |
| 20260905135502 | 26 | 151 | 3.2 | 14.5 | 0.00 | 0.00 | 0.00 | 91 | 1014.5 |
| 20260905135043 | 25 | 156 | 6.4 | 14.5 | 0.00 | 0.00 | 0.00 | 91 | 1014.4 |
| 20260905134518 | 25 | 184 | 1.6 | 11.3 | 0.00 | 0.00 | 0.00 | 91 | 1014.3 |
| 20260905134059 | 25 | 148 | 4.8 | 8.0 | 0.00 | 0.00 | 0.00 | 91 | 1014.3 |
| 20260905133535 | 25 | 159 | 1.6 | 8.0 | 0.00 | 0.00 | 0.00 | 92 | 1014.3 |
| 20260905133013 | 25 | 149 | 1.6 | 8.0 | 0.00 | 0.00 | 0.00 | 91 | 1014.3 |
| 20260905132552 | 24 | 150 | 3.2 | 8.0 | 0.00 | 0.00 | 0.00 | 92 | 1014.2 |
| 20260905132029 | 24 | 150 | 0.0 | 0.0 | 0.00 | 0.00 | 0.00 | 92 | 1014.1 |
| 20260905131505 | 23 | 150 | 0.0 | 0.0 | 0.00 | 0.15 | 0.00 | 92 | 1014.0 |
| 20260905131046 | 23 | 150 | 0.0 | 0.0 | 0.00 | 0.15 | 0.00 | 92 | 1014.0 |
| 20260905130523 | 23 | 150 | 0.0 | 0.0 | 0.00 | 0.15 | 0.00 | 92 | 1013.9 |
| 20260905130105 | 23 | 150 | 0.0 | 0.0 | 0.00 | 0.15 | 0.00 | 92 | 1013.8 |
| 20260905125538 | 23 | 150 | 0.0 | 0.0 | 0.00 | 0.15 | 0.00 | 92 | 1013.8 |
| 20260905125018 | 23 | 150 | 0.0 | 0.0 | 0.00 | 0.15 | 0.00 | 92 | 1013.8 |
| 20260905124556 | 23 | 150 | 0.0 | 0.0 | 0.00 | 0.15 | 0.00 | 92 | 1013.7 |
| 20260905124031 | 23 | 150 | 0.0 | 0.0 | 0.00 | 0.15 | 0.00 | 92 | 1013.7 |
| 20260905123508 | 23 | 150 | 0.0 | 0.0 | 0.00 | 0.15 | 0.00 | 92 | 1013.6 |
| 20260905123049 | 23 | 150 | 0.0 | 0.0 | 0.00 | 0.15 | 0.00 | 92 | 1013.5 |
| 20260905122529 | 23 | 150 | 0.0 | 0.0 | 0.00 | 0.15 | 0.00 | 92 | 1013.4 |
| 20260905122004 | 23 | 150 | 0.0 | 0.0 | 0.00 | 0.15 | 0.00 | 92 | 1013.4 |
| 20260905121543 | 23 | 150 | 0.0 | 0.0 | 0.00 | 0.15 | 0.00 | 92 | 1013.4 |
| 20260905121020 | 23 | 150 | 0.0 | 0.0 | 0.00 | 0.15 | 0.00 | 91 | 1013.4 |
| 20260905120604 | 23 | 150 | 0.0 | 0.0 | 0.00 | 0.15 | 0.00 | 91 | 1013.2 |
| 20260905120038 | 23 | 150 | 0.0 | 0.0 | 0.00 | 0.15 | 0.00 | 91 | 1013.2 |
| 20260905115515 | 23 | 150 | 0.0 | 0.0 | 0.00 | 0.15 | 0.00 | 91 | 1013.1 |
| 20260905115056 | 23 | 150 | 0.0 | 0.0 | 0.00 | 0.15 | 0.00 | 91 | 1013.2 |
| 20260905114532 | 23 | 150 | 0.0 | 0.0 | 0.00 | 0.15 | 0.00 | 91 | 1013.2 |
| 20260905114009 | 23 | 150 | 0.0 | 0.0 | 0.00 | 0.15 | 0.00 | 91 | 1013.2 |
| 20260905113551 | 23 | 150 | 0.0 | 0.0 | 0.00 | 0.15 | 0.00 | 91 | 1013.1 |
| 20260905113029 | 23 | 150 | 0.0 | 0.0 | 0.00 | 0.15 | 0.00 | 91 | 1013.1 |
| 20260905112504 | 23 | 150 | 0.0 | 0.0 | 0.00 | 0.15 | 0.00 | 91 | 1013.1 |
| 20260905112045 | 23 | 150 | 0.0 | 0.0 | 0.00 | 0.15 | 0.00 | 91 | 1013.1 |
| 20260905111522 | 23 | 150 | 0.0 | 0.0 | 0.00 | 0.15 | 0.00 | 91 | 1013.0 |
| 20260905111102 | 23 | 150 | 0.0 | 0.0 | 0.00 | 0.15 | 0.00 | 91 | 1012.9 |
| 20260905110538 | 23 | 150 | 0.0 | 0.0 | 0.00 | 0.15 | 0.00 | 91 | 1012.9 |
| 20260905110015 | 23 | 150 | 0.0 | 0.0 | 0.00 | 0.15 | 0.00 | 91 | 1012.8 |
| 20260905105556 | 23 | 150 | 0.0 | 0.0 | 0.00 | 0.15 | 0.00 | 91 | 1012.9 |
| 20260905105035 | 23 | 150 | 0.0 | 0.0 | 0.00 | 0.15 | 0.00 | 90 | 1012.8 |
| 20260905104509 | 24 | 150 | 0.0 | 0.0 | 0.00 | 0.15 | 0.00 | 90 | 1012.8 |
| 20260905104050 | 24 | 150 | 0.0 | 0.0 | 0.00 | 0.15 | 0.00 | 90 | 1012.8 |
| 20260905103530 | 24 | 150 | 0.0 | 0.0 | 0.00 | 0.15 | 0.00 | 90 | 1012.8 |
| 20260905103004 | 24 | 150 | 0.0 | 0.0 | 0.00 | 0.15 | 0.00 | 90 | 1012.9 |
| 20260905102544 | 24 | 150 | 0.0 | 0.0 | 0.00 | 0.15 | 0.00 | 90 | 1012.9 |
| 20260905102021 | 24 | 150 | 0.0 | 0.0 | 0.00 | 0.15 | 0.00 | 90 | 1012.9 |
| 20260905101602 | 24 | 150 | 0.0 | 0.0 | 0.00 | 0.15 | 0.00 | 90 | 1012.9 |
| 20260905101038 | 25 | 150 | 0.0 | 0.0 | 0.00 | 0.15 | 0.00 | 90 | 1012.9 |
| 20260905100515 | 25 | 150 | 0.0 | 0.0 | 0.00 | 0.15 | 0.00 | 90 | 1012.9 |
| 20260905100120 | 25 | 150 | 0.0 | 0.0 | 0.00 | 0.15 | 0.00 | 89 | 1012.9 |
| 20260905095534 | 25 | 150 | 0.0 | 0.0 | 0.00 | 0.15 | 0.00 | 89 | 1012.9 |
| 20260905095010 | 25 | 150 | 0.0 | 0.0 | 0.00 | 0.15 | 0.00 | 89 | 1012.9 |
| 20260905094552 | 25 | 150 | 0.0 | 0.0 | 0.00 | 0.15 | 0.00 | 89 | 1012.8 |
| 20260905094028 | 25 | 150 | 0.0 | 0.0 | 0.00 | 0.15 | 0.00 | 88 | 1012.9 |
| 20260905093505 | 25 | 150 | 0.0 | 1.6 | 0.00 | 0.15 | 0.00 | 88 | 1012.9 |
| 20260905093047 | 25 | 150 | 0.0 | 3.2 | 0.00 | 0.15 | 0.00 | 88 | 1012.9 |
| 20260905092523 | 25 | 150 | 0.0 | 3.2 | 0.00 | 0.15 | 0.00 | 88 | 1012.8 |
| 20260905092104 | 25 | 150 | 0.0 | 3.2 | 0.00 | 0.15 | 0.00 | 88 | 1012.8 |
| 20260905091544 | 25 | 150 | 0.0 | 4.8 | 0.00 | 0.15 | 0.00 | 88 | 1012.8 |
| 20260905091018 | 25 | 150 | 0.0 | 4.8 | 0.00 | 0.15 | 0.00 | 88 | 1012.8 |
| 20260905090600 | 25 | 150 | 0.0 | 4.8 | 0.00 | 0.15 | 0.00 | 88 | 1012.8 |
| 20260905090052 | 25 | 150 | 0.0 | 4.8 | 0.00 | 0.15 | 0.00 | 88 | 1012.9 |
| 20260905085514 | 25 | 150 | 1.6 | 4.8 | 0.00 | 0.15 | 0.00 | 87 | 1012.8 |
| 20260905085058 | 25 | 150 | 0.0 | 4.8 | 0.00 | 0.15 | 0.00 | 87 | 1012.9 |
| 20260905084532 | 25 | 150 | 0.0 | 9.7 | 0.00 | 0.15 | 0.00 | 87 | 1013.0 |
| 20260905084012 | 25 | 150 | 1.6 | 9.7 | 0.00 | 0.15 | 0.00 | 87 | 1013.0 |
| 20260905083552 | 25 | 124 | 0.0 | 12.9 | 0.00 | 0.15 | 0.00 | 87 | 1013.0 |
| 20260905083034 | 25 | 124 | 0.0 | 12.9 | 0.00 | 0.15 | 0.00 | 87 | 1012.9 |
| 20260905082501 | 25 | 148 | 0.0 | 1.6 | 0.00 | 0.15 | 0.00 | 86 | 1012.9 |
| 20260905082043 | 25 | 148 | 0.0 | 3.2 | 0.00 | 0.15 | 0.00 | 86 | 1012.9 |
| 20260905081521 | 25 | 148 | 0.0 | 3.2 | 0.00 | 0.15 | 0.00 | 86 | 1012.9 |
| 20260905081101 | 26 | 148 | 0.0 | 4.8 | 0.00 | 0.15 | 0.00 | 86 | 1013.0 |
| 20260905080542 | 26 | 148 | 1.6 | 4.8 | 0.00 | 0.15 | 0.00 | 85 | 1013.0 |
| 20260905080016 | 26 | 148 | 0.0 | 9.7 | 0.00 | 0.15 | 0.00 | 85 | 1013.0 |
| 20260905075557 | 26 | 157 | 1.6 | 4.8 | 0.00 | 0.15 | 0.00 | 85 | 1013.0 |
| 20260905075034 | 26 | 157 | 1.6 | 8.0 | 0.00 | 0.15 | 0.00 | 85 | 1013.0 |
| 20260905074511 | 26 | 157 | 1.6 | 8.0 | 0.00 | 0.15 | 0.00 | 84 | 1013.0 |
| 20260905074053 | 26 | 157 | 0.0 | 9.7 | 0.00 | 0.15 | 0.00 | 84 | 1013.0 |
| 20260905073531 | 26 | 148 | 3.2 | 9.7 | 0.00 | 0.15 | 0.00 | 83 | 1013.1 |
| 20260905073007 | 26 | 170 | 3.2 | 8.0 | 0.00 | 0.15 | 0.00 | 83 | 1013.1 |
| 20260905072549 | 26 | 170 | 1.6 | 6.4 | 0.00 | 0.15 | 0.00 | 83 | 1013.1 |
| 20260905072025 | 26 | 170 | 1.6 | 4.8 | 0.00 | 0.15 | 0.00 | 83 | 1013.1 |
| 20260905071503 | 26 | 170 | 1.6 | 6.4 | 0.00 | 0.15 | 0.00 | 82 | 1013.2 |
| 20260905071047 | 26 | 170 | 1.6 | 6.4 | 0.00 | 0.15 | 0.00 | 82 | 1013.2 |
| 20260905070520 | 26 | 170 | 1.6 | 6.4 | 0.00 | 0.15 | 0.00 | 82 | 1013.3 |
| 20260905070105 | 26 | 170 | 1.6 | 11.3 | 0.00 | 0.15 | 0.00 | 82 | 1013.3 |
| 20260905065539 | 26 | 163 | 4.8 | 11.3 | 0.00 | 0.15 | 0.00 | 82 | 1013.3 |
| 20260905065019 | 26 | 155 | 3.2 | 9.7 | 0.00 | 0.15 | 0.00 | 81 | 1013.4 |
| 20260905064559 | 26 | 158 | 1.6 | 8.0 | 0.00 | 0.15 | 0.00 | 81 | 1013.3 |
| 20260905064038 | 26 | 155 | 1.6 | 6.4 | 0.00 | 0.15 | 0.00 | 80 | 1013.4 |
| 20260905063511 | 26 | 175 | 1.6 | 8.0 | 0.00 | 0.15 | 0.00 | 80 | 1013.4 |
| 20260905063055 | 26 | 141 | 1.6 | 11.3 | 0.00 | 0.15 | 0.00 | 80 | 1013.5 |
| 20260905062530 | 26 | 138 | 1.6 | 11.3 | 0.00 | 0.15 | 0.00 | 79 | 1013.4 |
| 20260905062011 | 26 | 151 | 0.0 | 4.8 | 0.00 | 0.15 | 0.00 | 79 | 1013.4 |
| 20260905061551 | 26 | 151 | 1.6 | 4.8 | 0.00 | 0.15 | 0.00 | 79 | 1013.5 |
| 20260905061027 | 27 | 151 | 0.0 | 8.0 | 0.00 | 0.15 | 0.00 | 78 | 1013.6 |
| 20260905060504 | 27 | 153 | 3.2 | 8.0 | 0.00 | 0.15 | 0.00 | 78 | 1013.5 |
| 20260905060051 | 27 | 156 | 1.6 | 8.0 | 0.00 | 0.15 | 0.00 | 77 | 1013.6 |
| 20260905055524 | 27 | 161 | 4.8 | 11.3 | 0.00 | 0.15 | 0.00 | 77 | 1013.4 |
| 20260905055001 | 27 | 170 | 3.2 | 11.3 | 0.00 | 0.15 | 0.00 | 77 | 1013.5 |
| 20260905054544 | 27 | 148 | 3.2 | 9.7 | 0.00 | 0.15 | 0.00 | 77 | 1013.5 |
| 20260905054021 | 27 | 150 | 1.6 | 11.3 | 0.00 | 0.15 | 0.00 | 77 | 1013.7 |
| 20260905053603 | 27 | 146 | 3.2 | 19.3 | 0.00 | 0.15 | 0.00 | 76 | 1013.5 |
| 20260905053041 | 27 | 149 | 4.8 | 19.3 | 0.00 | 0.15 | 0.00 | 76 | 1013.4 |
| 20260905052517 | 27 | 147 | 8.0 | 14.5 | 0.00 | 0.15 | 0.00 | 76 | 1013.4 |
| 20260905052058 | 27 | 177 | 6.4 | 14.5 | 0.00 | 0.15 | 0.00 | 76 | 1013.5 |
| 20260905051540 | 27 | 153 | 3.2 | 11.3 | 0.00 | 0.15 | 0.15 | 76 | 1013.6 |
| 20260905051013 | 27 | 147 | 1.6 | 9.7 | 0.00 | 0.15 | 0.15 | 76 | 1013.6 |
| 20260905050555 | 27 | 150 | 1.6 | 11.3 | 0.00 | 0.15 | 0.15 | 76 | 1013.7 |
| 20260905050034 | 27 | 150 | 3.2 | 11.3 | 0.00 | 0.15 | 0.15 | 76 | 1013.7 |
| 20260905045510 | 27 | 136 | 3.2 | 6.4 | 0.00 | 0.15 | 0.15 | 76 | 1013.7 |
| 20260905045052 | 27 | 148 | 1.6 | 8.0 | 0.00 | 0.15 | 0.15 | 76 | 1013.6 |
| 20260905044537 | 27 | 148 | 3.2 | 8.0 | 0.00 | 0.15 | 0.15 | 76 | 1013.6 |
| 20260905044007 | 27 | 153 | 1.6 | 6.4 | 0.00 | 0.15 | 0.15 | 76 | 1013.7 |
| 20260905043551 | 27 | 147 | 1.6 | 11.3 | 0.00 | 0.15 | 0.15 | 76 | 1013.7 |
| 20260905043027 | 27 | 154 | 1.6 | 9.7 | 0.00 | 0.15 | 0.15 | 75 | 1013.6 |
| 20260905042503 | 27 | 154 | 3.2 | 11.3 | 0.00 | 0.15 | 0.15 | 75 | 1013.6 |
| 20260905042045 | 27 | 157 | 3.2 | 11.3 | 0.00 | 0.15 | 0.15 | 75 | 1013.5 |
| 20260905041524 | 27 | 139 | 4.8 | 8.0 | 0.00 | 0.15 | 0.15 | 75 | 1013.5 |
| 20260905041105 | 27 | 141 | 3.2 | 9.7 | 0.00 | 0.15 | 0.15 | 74 | 1013.5 |
| 20260905040541 | 27 | 161 | 3.2 | 9.7 | 0.00 | 0.15 | 0.15 | 74 | 1013.5 |
| 20260905040020 | 27 | 199 | 3.2 | 9.7 | 0.00 | 0.15 | 0.15 | 74 | 1013.5 |
| 20260905035601 | 27 | 142 | 3.2 | 8.0 | 0.00 | 0.15 | 0.15 | 74 | 1013.5 |
| 20260905035037 | 27 | 152 | 3.2 | 8.0 | 0.00 | 0.15 | 0.15 | 74 | 1013.4 |
| 20260905034517 | 28 | 153 | 1.6 | 8.0 | 0.00 | 0.15 | 0.15 | 74 | 1013.4 |
| 20260905034059 | 28 | 153 | 3.2 | 8.0 | 0.00 | 0.15 | 0.15 | 74 | 1013.4 |
| 20260905033534 | 28 | 153 | 3.2 | 8.0 | 0.00 | 0.15 | 0.15 | 74 | 1013.4 |
| 20260905033014 | 28 | 159 | 4.8 | 11.3 | 0.00 | 0.15 | 0.15 | 74 | 1013.3 |
| 20260905032556 | 28 | 165 | 3.2 | 11.3 | 0.00 | 0.15 | 0.15 | 74 | 1013.4 |
| 20260905032032 | 28 | 161 | 3.2 | 9.7 | 0.00 | 0.15 | 0.15 | 74 | 1013.4 |
| 20260905031512 | 28 | 144 | 1.6 | 4.8 | 0.00 | 0.15 | 0.15 | 74 | 1013.3 |
| 20260905031058 | 28 | 144 | 1.6 | 6.4 | 0.00 | 0.15 | 0.15 | 73 | 1013.3 |
| 20260905030532 | 28 | 144 | 3.2 | 6.4 | 0.00 | 0.15 | 0.15 | 73 | 1013.2 |
| 20260905030014 | 28 | 138 | 1.6 | 6.4 | 0.00 | 0.15 | 0.15 | 73 | 1013.2 |
| 20260905025555 | 28 | 138 | 3.2 | 6.4 | 0.00 | 0.15 | 0.15 | 72 | 1013.1 |
| 20260905025036 | 28 | 138 | 1.6 | 6.4 | 0.00 | 0.15 | 0.15 | 72 | 1013.2 |
| 20260905024515 | 28 | 138 | 1.6 | 8.0 | 0.00 | 0.15 | 0.15 | 72 | 1013.1 |
| 20260905024055 | 28 | 140 | 3.2 | 11.3 | 0.00 | 0.15 | 0.15 | 72 | 1013.0 |
| 20260905023531 | 28 | 148 | 4.8 | 11.3 | 0.00 | 0.15 | 0.15 | 71 | 1013.0 |
| 20260905023014 | 28 | 137 | 3.2 | 11.3 | 0.00 | 0.15 | 0.15 | 71 | 1013.0 |
| 20260905022551 | 28 | 138 | 3.2 | 11.3 | 0.00 | 0.15 | 0.15 | 71 | 1012.8 |
| 20260905022028 | 28 | 162 | 4.8 | 8.0 | 0.00 | 0.15 | 0.15 | 71 | 1012.8 |
| 20260905021508 | 28 | 152 | 3.2 | 8.0 | 0.00 | 0.15 | 0.15 | 71 | 1012.8 |
| 20260905021051 | 28 | 163 | 4.8 | 11.3 | 0.00 | 0.15 | 0.15 | 71 | 1012.7 |
| 20260905020525 | 29 | 159 | 4.8 | 11.3 | 0.00 | 0.15 | 0.15 | 71 | 1012.7 |
| 20260905020009 | 29 | 144 | 3.2 | 11.3 | 0.00 | 0.15 | 0.15 | 71 | 1012.6 |
| 20260905015546 | 29 | 142 | 4.8 | 11.3 | 0.00 | 0.15 | 0.15 | 71 | 1012.6 |
| 20260905015024 | 29 | 112 | 6.4 | 11.3 | 0.00 | 0.15 | 0.15 | 70 | 1012.4 |
| 20260905014502 | 29 | 133 | 4.8 | 11.3 | 0.00 | 0.15 | 0.15 | 70 | 1012.3 |
| 20260905014044 | 29 | 138 | 4.8 | 11.3 | 0.00 | 0.15 | 0.15 | 70 | 1012.3 |
| 20260905013521 | 29 | 157 | 4.8 | 12.9 | 0.00 | 0.15 | 0.15 | 70 | 1012.3 |
| 20260905013105 | 29 | 138 | 4.8 | 16.1 | 0.00 | 0.15 | 0.15 | 69 | 1012.3 |
| 20260905012544 | 29 | 147 | 6.4 | 16.1 | 0.00 | 0.15 | 0.15 | 69 | 1012.2 |
| 20260905012018 | 29 | 140 | 6.4 | 12.9 | 0.00 | 0.15 | 0.15 | 68 | 1012.2 |
| 20260905011602 | 29 | 157 | 3.2 | 9.7 | 0.00 | 0.15 | 0.15 | 68 | 1012.1 |
| 20260905011038 | 30 | 148 | 3.2 | 12.9 | 0.00 | 0.15 | 0.15 | 67 | 1012.1 |
| 20260905010515 | 30 | 142 | 4.8 | 14.5 | 0.00 | 0.15 | 0.15 | 67 | 1012.1 |
| 20260905010109 | 30 | 140 | 6.4 | 14.5 | 0.00 | 0.15 | 0.15 | 66 | 1012.0 |
| 20260905005536 | 30 | 128 | 4.8 | 14.5 | 0.00 | 0.15 | 0.15 | 66 | 1012.0 |
| 20260905005014 | 30 | 134 | 8.0 | 14.5 | 0.00 | 0.15 | 0.15 | 66 | 1012.1 |
| 20260905004557 | 30 | 152 | 9.7 | 16.1 | 0.00 | 0.15 | 0.15 | 65 | 1012.0 |
| 20260905004037 | 30 | 137 | 6.4 | 22.5 | 0.00 | 0.15 | 0.15 | 64 | 1012.0 |
| 20260905003511 | 30 | 145 | 4.8 | 22.5 | 0.00 | 0.15 | 0.15 | 63 | 1012.0 |
| 20260905003054 | 30 | 166 | 6.4 | 19.3 | 0.00 | 0.15 | 0.15 | 63 | 1011.8 |
| 20260905002531 | 31 | 136 | 9.7 | 19.3 | 0.00 | 0.15 | 0.15 | 62 | 1011.8 |
| 20260905002020 | 31 | 129 | 4.8 | 17.7 | 0.00 | 0.15 | 0.15 | 61 | 1011.8 |
| 20260905001552 | 31 | 123 | 8.0 | 19.3 | 0.00 | 0.15 | 0.15 | 61 | 1011.7 |
| 20260905001023 | 31 | 121 | 9.7 | 19.3 | 0.00 | 0.15 | 0.15 | 60 | 1011.6 |
| 20260905000501 | 31 | 127 | 9.7 | 19.3 | 0.00 | 0.15 | 0.15 | 59 | 1011.4 |
| 20260905000058 | 31 | 135 | 12.9 | 19.3 | 0.00 | 0.15 | 0.15 | 57 | 1011.4 |
| 20260904235524 | 31 | 137 | 9.7 | 19.3 | 0.00 | 0.15 | 0.15 | 55 | 1011.4 |
| 20260904235002 | 32 | 129 | 9.7 | 20.9 | 0.00 | 0.15 | 0.15 | 54 | 1011.4 |
| 20260904234546 | 32 | 128 | 9.7 | 20.9 | 0.00 | 0.15 | 0.15 | 53 | 1011.5 |
| 20260904234023 | 32 | 137 | 8.0 | 19.3 | 0.00 | 0.15 | 0.15 | 54 | 1011.4 |
| 20260904233605 | 32 | 139 | 8.0 | 20.9 | 0.00 | 0.15 | 0.15 | 54 | 1011.3 |
| 20260904233045 | 32 | 144 | 11.3 | 20.9 | 0.00 | 0.15 | 0.15 | 54 | 1011.3 |
| 20260904232520 | 33 | 111 | 11.3 | 27.4 | 0.00 | 0.15 | 0.15 | 53 | 1011.3 |
| 20260904232105 | 34 | 87 | 16.1 | 27.4 | 0.00 | 0.15 | 0.15 | 51 | 1011.3 |
| 20260904231549 | 35 | 110 | 9.7 | 19.3 | 0.00 | 0.15 | 0.15 | 50 | 1011.3 |
| 20260904231019 | 35 | 146 | 3.2 | 9.7 | 0.00 | 0.15 | 0.15 | 44 | 1011.3 |
| 20260904230601 | 35 | 208 | 1.6 | 12.9 | 0.00 | 0.15 | 0.15 | 42 | 1011.2 |
| 20260904230059 | 35 | 152 | 4.8 | 14.5 | 0.00 | 0.15 | 0.15 | 40 | 1011.2 |
| 20260904225518 | 35 | 176 | 4.8 | 16.1 | 0.00 | 0.15 | 0.15 | 40 | 1011.3 |
| 20260904225059 | 35 | 130 | 4.8 | 16.1 | 0.00 | 0.15 | 0.15 | 39 | 1011.3 |